LVLRG KSAN-KLAX

Flight info

Callsign LVLRG
Flight time 0h 31m
Altitude 10000
Route PEBLE6 SLI
Aircraft B350/L-SDF/C

Departure

Time 2026-04-25 23:42
Airport San Diego International Airport (KSAN)

Arrival

Time 2026-04-26 00:13
Airport Los Angeles International Airport (KLAX)
Time Latitude Longitude Altitude Speed Heading
2026-04-25 23:18 32.73421 -117.17884 22 ft 0 kts 206°
2026-04-25 23:37 32.73407 -117.17892 23 ft 8 kts 206°
2026-04-25 23:37 32.73370 -117.17939 25 ft 7 kts 237°
2026-04-25 23:37 32.73367 -117.17944 24 ft 0 kts 207°
2026-04-25 23:38 32.73332 -117.17954 22 ft 9 kts 199°
2026-04-25 23:38 32.73262 -117.17982 19 ft 12 kts 188°
2026-04-25 23:39 32.73211 -117.17894 18 ft 16 kts 105°
2026-04-25 23:39 32.73180 -117.17757 20 ft 18 kts 107°
2026-04-25 23:39 32.73136 -117.17665 19 ft 8 kts 163°
2026-04-25 23:39 32.73080 -117.17674 18 ft 8 kts 198°
2026-04-25 23:40 32.73048 -117.17699 17 ft 0 kts 281°
2026-04-25 23:40 32.73051 -117.17712 17 ft 0 kts 287°
2026-04-25 23:41 32.73109 -117.17950 16 ft 70 kts 287°
2026-04-25 23:42 32.73308 -117.18721 93 ft 116 kts 286°
2026-04-25 23:42 32.73580 -117.19646 636 ft 121 kts 285°
2026-04-25 23:42 32.73863 -117.20649 1030 ft 141 kts 286°
2026-04-25 23:42 32.74184 -117.21831 1450 ft 155 kts 285°
2026-04-25 23:43 32.74505 -117.23084 1920 ft 163 kts 284°
2026-04-25 23:43 32.74830 -117.24400 2420 ft 166 kts 283°
2026-04-25 23:43 32.75165 -117.25689 3072 ft 161 kts 284°
2026-04-25 23:43 32.75492 -117.26997 3452 ft 173 kts 283°
2026-04-25 23:44 32.75852 -117.28399 3850 ft 179 kts 286°
2026-04-25 23:44 32.76231 -117.29764 4554 ft 169 kts 287°
2026-04-25 23:44 32.76616 -117.31118 4964 ft 179 kts 287°
2026-04-25 23:44 32.77014 -117.32549 5404 ft 182 kts 286°
2026-04-25 23:45 32.77377 -117.33964 6088 ft 178 kts 283°
2026-04-25 23:45 32.77766 -117.35387 6629 ft 184 kts 288°
2026-04-25 23:45 32.78219 -117.36812 7224 ft 184 kts 287°
2026-04-25 23:45 32.78658 -117.38232 7816 ft 183 kts 285°
2026-04-25 23:46 32.79087 -117.39700 8068 ft 195 kts 284°
2026-04-25 23:46 32.79548 -117.41300 8006 ft 213 kts 284°
2026-04-25 23:46 32.80035 -117.43020 7978 ft 227 kts 285°
2026-04-25 23:46 32.80568 -117.44832 7981 ft 237 kts 285°
2026-04-25 23:47 32.80936 -117.46071 7965 ft 242 kts 286°
2026-04-25 23:47 32.81629 -117.47912 7966 ft 251 kts 301°
2026-04-25 23:47 32.82959 -117.49310 7956 ft 263 kts 328°
2026-04-25 23:47 32.84692 -117.50091 7983 ft 267 kts 336°
2026-04-25 23:48 32.86445 -117.50825 8031 ft 267 kts 335°
2026-04-25 23:48 32.88786 -117.51899 7944 ft 272 kts 335°
2026-04-25 23:48 32.90532 -117.52680 8012 ft 271 kts 335°
2026-04-25 23:48 32.91720 -117.53221 8027 ft 271 kts 335°
2026-04-25 23:49 32.93491 -117.54017 8035 ft 272 kts 335°
2026-04-25 23:49 32.95261 -117.54817 8042 ft 273 kts 335°
2026-04-25 23:49 32.97037 -117.55635 8043 ft 274 kts 335°
2026-04-25 23:49 32.98817 -117.56459 8029 ft 275 kts 334°
2026-04-25 23:50 33.00541 -117.57403 8037 ft 271 kts 323°
2026-04-25 23:50 33.01910 -117.58899 8030 ft 266 kts 308°
2026-04-25 23:50 33.03121 -117.60559 8033 ft 266 kts 307°
2026-04-25 23:50 33.04332 -117.62234 8036 ft 266 kts 306°
2026-04-25 23:51 33.05469 -117.63966 8047 ft 265 kts 304°
2026-04-25 23:51 33.06598 -117.65720 7986 ft 267 kts 304°
2026-04-25 23:51 33.07711 -117.67495 7981 ft 267 kts 303°
2026-04-25 23:51 33.08797 -117.69242 7986 ft 266 kts 303°
2026-04-25 23:52 33.09936 -117.71022 7985 ft 266 kts 304°
2026-04-25 23:52 33.11075 -117.72755 7984 ft 266 kts 305°
2026-04-25 23:52 33.12227 -117.74489 7984 ft 266 kts 305°
2026-04-25 23:52 33.13361 -117.76190 7987 ft 266 kts 305°
2026-04-25 23:53 33.14513 -117.77917 7986 ft 266 kts 305°
2026-04-25 23:53 33.15663 -117.79643 7982 ft 266 kts 305°
2026-04-25 23:53 33.16816 -117.81373 7981 ft 266 kts 305°
2026-04-25 23:53 33.17984 -117.83084 7982 ft 267 kts 311°
2026-04-25 23:54 33.19482 -117.84417 7984 ft 271 kts 325°
2026-04-25 23:54 33.21136 -117.85509 7984 ft 272 kts 329°
2026-04-25 23:54 33.22835 -117.86510 7982 ft 273 kts 332°
2026-04-25 23:54 33.24631 -117.87277 7985 ft 275 kts 340°
2026-04-25 23:55 33.26479 -117.87908 7998 ft 276 kts 341°
2026-04-25 23:55 33.28340 -117.88504 7997 ft 278 kts 341°
2026-04-25 23:55 33.30212 -117.89089 8026 ft 280 kts 342°
2026-04-25 23:55 33.32112 -117.89679 8011 ft 284 kts 342°
2026-04-25 23:56 33.34031 -117.90298 7996 ft 285 kts 340°
2026-04-25 23:56 33.35936 -117.90969 7981 ft 286 kts 341°
2026-04-25 23:56 33.37859 -117.91599 7948 ft 285 kts 341°
2026-04-25 23:56 33.39748 -117.92258 7960 ft 282 kts 340°
2026-04-25 23:57 33.41633 -117.92892 7972 ft 280 kts 341°
2026-04-25 23:57 33.43501 -117.93528 7980 ft 279 kts 340°
2026-04-25 23:57 33.45362 -117.94170 7986 ft 279 kts 341°
2026-04-25 23:57 33.47209 -117.94791 7991 ft 278 kts 340°
2026-04-25 23:58 33.49065 -117.95438 7995 ft 277 kts 341°
2026-04-25 23:58 33.50949 -117.96061 7979 ft 278 kts 341°
2026-04-25 23:58 33.52791 -117.96687 7989 ft 279 kts 340°
2026-04-25 23:58 33.54666 -117.97357 7895 ft 283 kts 340°
2026-04-25 23:59 33.56569 -117.98044 7618 ft 289 kts 340°
2026-04-25 23:59 33.58506 -117.98722 7354 ft 288 kts 341°
2026-04-25 23:59 33.60427 -117.99354 7044 ft 285 kts 342°
2026-04-25 23:59 33.62354 -117.99944 6596 ft 284 kts 343°
2026-04-26 00:00 33.64259 -118.00529 6213 ft 280 kts 342°
2026-04-26 00:00 33.66099 -118.01116 5914 ft 271 kts 342°
2026-04-26 00:00 33.67904 -118.01722 5605 ft 268 kts 341°
2026-04-26 00:00 33.69691 -118.02351 5327 ft 269 kts 340°
2026-04-26 00:01 33.71478 -118.03008 5121 ft 269 kts 340°
2026-04-26 00:01 33.73264 -118.03692 5011 ft 269 kts 340°
2026-04-26 00:01 33.75042 -118.04373 4986 ft 266 kts 340°
2026-04-26 00:01 33.76794 -118.05045 4980 ft 263 kts 340°
2026-04-26 00:02 33.78536 -118.05718 5007 ft 263 kts 340°
2026-04-26 00:02 33.80336 -118.06111 5019 ft 267 kts 358°
2026-04-26 00:02 33.82202 -118.05957 4991 ft 268 kts
2026-04-26 00:02 33.84056 -118.05772 5033 ft 267 kts
2026-04-26 00:03 33.85917 -118.05612 5015 ft 269 kts
2026-04-26 00:03 33.87788 -118.05469 5025 ft 271 kts
2026-04-26 00:03 33.89650 -118.04990 4953 ft 278 kts 18°
2026-04-26 00:03 33.91373 -118.03884 4851 ft 284 kts 36°
2026-04-26 00:04 33.92762 -118.02198 4756 ft 284 kts 56°
2026-04-26 00:04 33.93566 -118.00080 4599 ft 281 kts 77°
2026-04-26 00:04 33.93949 -117.97768 4443 ft 277 kts 74°
2026-04-26 00:04 33.94858 -117.95762 4191 ft 282 kts 47°
2026-04-26 00:05 33.96454 -117.94456 4101 ft 277 kts 19°
2026-04-26 00:05 33.98328 -117.94226 3978 ft 271 kts 346°
2026-04-26 00:05 33.99869 -117.95352 3993 ft 258 kts 305°
2026-04-26 00:05 34.00474 -117.97336 3942 ft 255 kts 271°
2026-04-26 00:06 34.00137 -117.99404 3962 ft 251 kts 246°
2026-04-26 00:06 33.99364 -118.01281 3984 ft 252 kts 242°
2026-04-26 00:06 33.98557 -118.03193 4017 ft 258 kts 242°
2026-04-26 00:06 33.97745 -118.05107 4030 ft 255 kts 242°
2026-04-26 00:07 33.96944 -118.06985 4009 ft 247 kts 242°
2026-04-26 00:07 33.96266 -118.08861 3716 ft 246 kts 254°
2026-04-26 00:07 33.96076 -118.10901 3307 ft 240 kts 270°
2026-04-26 00:07 33.96140 -118.12805 3139 ft 219 kts 271°
2026-04-26 00:08 33.96204 -118.14602 3054 ft 210 kts 269°
2026-04-26 00:08 33.96125 -118.16311 3071 ft 198 kts 261°
2026-04-26 00:08 33.95909 -118.17937 3073 ft 199 kts 259°
2026-04-26 00:08 33.95658 -118.19612 3051 ft 206 kts 258°
2026-04-26 00:09 33.95435 -118.21312 3027 ft 203 kts 263°
2026-04-26 00:09 33.95315 -118.22971 2923 ft 192 kts 264°
2026-04-26 00:09 33.95188 -118.24515 2726 ft 180 kts 263°
2026-04-26 00:09 33.95039 -118.25981 2534 ft 173 kts 261°
2026-04-26 00:10 33.94869 -118.27391 2389 ft 169 kts 261°
2026-04-26 00:10 33.94713 -118.28779 2205 ft 161 kts 262°
2026-04-26 00:10 33.94562 -118.30081 1864 ft 154 kts 262°
2026-04-26 00:10 33.94434 -118.31309 1595 ft 138 kts 263°
2026-04-26 00:11 33.94352 -118.32405 1308 ft 128 kts 263°
2026-04-26 00:11 33.94238 -118.33448 1077 ft 124 kts 261°
2026-04-26 00:11 33.94124 -118.34479 820 ft 122 kts 261°
2026-04-26 00:11 33.94016 -118.35502 588 ft 126 kts 261°
2026-04-26 00:12 33.93923 -118.36519 456 ft 116 kts 263°
2026-04-26 00:12 33.93824 -118.37456 282 ft 109 kts 262°
2026-04-26 00:12 33.93730 -118.38326 179 ft 101 kts 263°
2026-04-26 00:12 33.93651 -118.39111 120 ft 83 kts 262°
2026-04-26 00:13 33.93587 -118.39687 122 ft 60 kts 262°
2026-04-26 00:13 33.93521 -118.40095 120 ft 44 kts 252°
2026-04-26 00:13 33.93443 -118.40254 120 ft 0 kts 258°
2026-04-26 00:13 33.93443 -118.40255 120 ft 0 kts 242°
2026-04-26 00:14 33.93425 -118.40286 122 ft 0 kts 243°
2026-04-26 00:14 33.93425 -118.40287 122 ft 0 kts 244°
2026-04-26 00:14 33.93421 -118.40295 122 ft 4 kts 245°
2026-04-26 00:14 33.93345 -118.40371 122 ft 21 kts 174°